Location: *
(60.1759°S, 155.0663°W)
Time: 10:59:56
(UTC+00:00)

SL-16 R/B - Pass Details

Date: 17 September 2019
Orbit: 840 x 849 km, 71.0° (Epoch: 20 October)

Event Time Altitude Azimuth Distance (km) Brightness Sun altitude
Exits shadow 12:38:42 38° 247° (WSW) 1,287 2.9 -25.9°
Maximum altitude 12:40:02 45° 212° (SSW) 1,172 3.0 -25.8°
Drops below altitude 10° 12:45:33 10° 139° (SE) 2,509 5.7 -25.3°
Sets 12:48:09 0° 132° (SE) 3,446 6.8 -25.1°
